CW9181 Weather Reports


time (UTC)temp
C
wind
direction
speed
KPH
gust
KPH
rain 1hr
cm
rain 24hr
cm
rain mn
cm
humidity
%
barometer
mb
20260904180008 20 180 11.3 20.9 0.00 0.08 0.08 66 1014.5
20260904175008 20 141 8.0 16.1 0.00 0.08 0.08 68 1014.6
20260904174009 20 154 1.6 12.9 0.00 0.08 0.08 70 1014.5
20260904173014 19 245 3.2 14.5 0.00 0.08 0.08 73 1014.5
20260904172010 20 117 4.8 12.9 0.00 0.08 0.08 72 1014.4
20260904171013 19 195 9.7 19.3 0.00 0.08 0.08 73 1014.4
20260904170019 18 217 8.0 17.7 0.00 0.08 0.08 73 1014.3
20260904165015 18 124 9.7 17.7 0.00 0.08 0.08 74 1014.2
20260904164014 18 128 4.8 16.1 0.00 0.08 0.08 78 1014.2
20260904163036 18 170 9.7 17.7 0.00 0.08 0.08 80 1014.1
20260904162015 18 145 9.7 16.1 0.00 0.08 0.08 80 1014.0
20260904161016 17 170 3.2 9.7 0.00 0.08 0.08 82 1013.9
20260904160041 17 186 6.4 12.9 0.00 0.08 0.08 84 1013.9
20260904155038 16 170 6.4 16.1 0.00 0.08 0.08 86 1013.9
20260904154022 16 167 6.4 12.9 0.00 0.08 0.08 88 1013.9
20260904153025 15 151 6.4 16.1 0.00 0.08 0.08 88 1013.7
20260904152022 15 170 8.0 12.9 0.00 0.08 0.08 89 1013.7
20260904151024 15 184 3.2 9.7 0.00 0.08 0.08 89 1013.7
20260904150009 15 178 6.4 12.9 0.00 0.08 0.08 89 1013.5
20260904145006 15 207 1.6 9.7 0.00 0.08 0.08 90 1013.5
20260904144008 15 188 0.0 6.4 0.00 0.08 0.08 90 1013.4
20260904143012 15 180 1.6 6.4 0.00 0.08 0.08 90 1013.3
20260904142010 15 228 3.2 9.7 0.00 0.08 0.08 90 1013.2
20260904141010 15 176 3.2 9.7 0.00 0.08 0.08 90 1013.0
20260904140035 15 191 3.2 6.4 0.00 0.08 0.08 90 1013.0
20260904135013 15 168 4.8 11.3 0.00 0.08 0.08 90 1012.6
20260904134018 15 174 4.8 11.3 0.00 0.08 0.08 90 1012.4
20260904133020 15 172 6.4 11.3 0.00 0.08 0.08 90 1012.5
20260904132014 16 161 3.2 8.0 0.00 0.08 0.08 91 1012.5
20260904131019 16 159 3.2 9.7 0.00 0.08 0.08 91 1012.5
20260904130021 16 180 4.8 11.3 0.00 0.08 0.08 91 1012.4
20260904125023 16 153 4.8 9.7 0.00 0.08 0.08 91 1012.3
20260904124020 16 187 4.8 9.7 0.00 0.08 0.08 91 1012.3
20260904123024 16 145 3.2 12.9 0.00 0.08 0.08 91 1012.2
20260904122007 16 175 4.8 12.9 0.00 0.08 0.08 91 1012.2
20260904121007 16 137 4.8 12.9 0.00 0.08 0.08 91 1012.0
20260904120015 16 157 4.8 11.3 0.00 0.08 0.08 91 1012.0
20260904115040 16 176 1.6 9.7 0.00 0.08 0.08 91 1012.0
20260904114019 16 164 3.2 8.0 0.00 0.08 0.08 91 1012.0
20260904113023 16 131 3.2 8.0 0.00 0.08 0.08 91 1012.0
20260904112007 16 181 3.2 9.7 0.00 0.08 0.08 91 1012.0
20260904111006 16 179 4.8 9.7 0.00 0.08 0.08 91 1011.9
20260904110027 16 139 4.8 6.4 0.00 0.08 0.08 91 1011.8
20260904105007 16 185 1.6 9.7 0.00 0.08 0.08 90 1011.9
20260904104024 16 151 4.8 9.7 0.00 0.08 0.08 91 1011.7
20260904103007 16 112 4.8 6.4 0.00 0.08 0.08 91 1011.6
20260904102014 16 174 1.6 6.4 0.00 0.08 0.08 90 1011.5
20260904101014 16 169 3.2 9.7 0.00 0.08 0.08 90 1011.6
20260904100016 16 199 3.2 9.7 0.00 0.08 0.08 90 1011.6
20260904095041 16 158 3.2 8.0 0.00 0.08 0.08 90 1011.6
20260904094040 17 186 3.2 8.0 0.00 0.08 0.08 90 1011.6
20260904093006 17 240 1.6 8.0 0.00 0.08 0.08 90 1011.6
20260904092011 17 189 1.6 6.4 0.00 0.08 0.08 90 1011.4
20260904091016 17 180 1.6 4.8 0.00 0.08 0.08 89 1011.3
20260904090017 17 184 1.6 6.4 0.03 0.08 0.08 89 1011.4
20260904085020 17 194 3.2 6.4 0.03 0.08 0.08 89 1011.5
20260904084042 17 179 1.6 6.4 0.05 0.08 0.08 89 1011.5
20260904083019 17 182 0.0 6.4 0.05 0.08 0.08 88 1011.5
20260904082023 17 159 1.6 11.3 0.08 0.08 0.08 88 1011.5
20260904081047 17 149 3.2 11.3 0.05 0.05 0.05 87 1011.6
20260904080022 17 153 3.2 9.7 0.05 0.05 0.05 87 1011.5
20260904075043 17 139 4.8 12.9 0.05 0.05 0.05 85 1011.4
20260904074022 18 186 6.4 14.5 0.03 0.03 0.03 85 1011.5
20260904073021 18 166 6.4 11.3 0.03 0.03 0.03 84 1011.6
20260904072008 18 146 3.2 11.3 0.00 0.00 0.00 84 1011.6
20260904071012 18 199 4.8 12.9 0.00 0.00 0.00 85 1011.6
20260904070024 18 193 1.6 11.3 0.00 0.00 0.00 85 1011.5
20260904065020 18 153 1.6 6.4 0.00 0.00 0.00 85 1011.5
20260904064042 18 160 1.6 3.2 0.00 0.00 0.00 86 1011.6
20260904063020 18 339 0.0 0.0 0.00 0.00 0.00 86 1011.6
20260904062041 18 339 0.0 0.0 0.00 0.00 0.00 85 1011.5
20260904061044 18 339 0.0 0.0 0.00 0.00 0.00 84 1011.5
20260904060017 18 339 0.0 0.0 0.00 0.00 0.00 84 1011.6
20260904055019 18 339 0.0 0.0 0.00 0.00 0.00 82 1011.5
20260904054021 18 339 0.0 0.0 0.00 0.00 0.00 82 1011.6
20260904053017 18 339 0.0 0.0 0.00 0.00 0.00 80 1011.7
20260904052015 18 339 0.0 0.0 0.00 0.00 0.00 79 1011.8
20260904051013 18 339 0.0 0.0 0.00 0.00 0.00 77 1011.7
20260904050007 19 339 0.0 0.0 0.00 0.00 0.00 77 1011.8
20260904045011 19 8 0.0 1.6 0.00 0.00 0.00 76 1011.7
20260904044012 19 99 0.0 4.8 0.00 0.00 0.00 75 1011.7
20260904043030 19 73 1.6 6.4 0.00 0.00 0.00 75 1011.5
20260904042031 19 260 1.6 4.8 0.00 0.00 0.00 75 1011.6
20260904041016 19 47 0.0 3.2 0.00 0.00 0.00 74 1011.6
20260904040025 19 16 1.6 4.8 0.00 0.00 0.00 74 1011.7
20260904035047 19 317 1.6 4.8 0.00 0.00 0.00 74 1011.7
20260904034010 19 1 3.2 8.0 0.00 0.00 0.00 73 1011.6
20260904033046 20 331 3.2 11.3 0.00 0.00 0.00 72 1011.4
20260904032021 20 327 4.8 8.0 0.00 0.00 0.00 72 1011.4
20260904031044 20 309 4.8 8.0 0.00 0.00 0.00 72 1011.3
20260904030024 20 287 4.8 14.5 0.00 0.00 0.00 70 1011.1
20260904025027 20 280 4.8 6.4 0.00 0.00 0.00 72 1011.2
20260904024026 21 278 0.0 6.4 0.00 0.00 0.00 72 1011.4
20260904023026 21 255 3.2 9.7 0.00 0.00 0.00 72 1011.4
20260904022028 21 260 4.8 8.0 0.00 0.00 0.00 71 1011.4
20260904021009 21 249 1.6 8.0 0.00 0.00 0.00 71 1011.3
20260904020012 21 236 4.8 12.9 0.00 0.00 0.00 70 1011.4
20260904015028 21 270 0.0 9.7 0.00 0.00 0.00 69 1011.4
20260904014011 21 260 6.4 14.5 0.00 0.00 0.00 69 1011.4
20260904013010 21 238 8.0 17.7 0.00 0.00 0.00 68 1011.6
20260904012010 21 289 8.0 19.3 0.00 0.00 0.00 67 1011.6
20260904011016 21 265 8.0 14.5 0.00 0.00 0.00 67 1011.6
20260904010018 22 254 8.0 19.3 0.00 0.00 0.00 67 1011.7
20260904005018 22 248 6.4 17.7 0.00 0.00 0.00 66 1011.8
20260904004017 22 189 9.7 19.3 0.00 0.00 0.00 65 1011.9
20260904003018 22 251 8.0 19.3 0.00 0.00 0.00 65 1011.8
20260904002041 22 254 8.0 17.7 0.00 0.00 0.00 64 1011.6
20260904001043 22 241 8.0 19.3 0.00 0.00 0.00 64 1011.7
20260904000046 22 260 8.0 19.3 0.00 0.00 0.00 64 1011.7
20260903235024 23 256 6.4 16.1 0.00 0.00 0.00 64 1011.8
20260903234025 23 208 4.8 20.9 0.00 0.00 0.00 63 1011.8
20260903233028 23 254 8.0 19.3 0.00 0.00 0.00 63 1011.7
20260903232025 23 207 8.0 14.5 0.00 0.00 0.00 62 1011.8
20260903231026 23 265 11.3 19.3 0.00 0.00 0.00 62 1012.1
20260903230028 23 248 8.0 19.3 0.00 0.00 0.00 62 1012.1
20260903225010 23 236 8.0 25.7 0.00 0.00 0.00 61 1012.0
20260903224023 23 245 4.8 17.7 0.00 0.00 0.00 61 1012.1
20260903223025 23 199 11.3 17.7 0.00 0.00 0.00 60 1012.2
20260903222040 23 201 4.8 16.1 0.00 0.00 0.00 60 1012.4
20260903221023 23 203 6.4 17.7 0.00 0.00 0.00 61 1012.4
20260903220023 23 216 6.4 17.7 0.00 0.00 0.00 61 1012.8
20260903215027 23 235 4.8 17.7 0.00 0.00 0.00 60 1012.8
20260903214027 23 205 3.2 16.1 0.00 0.00 0.00 61 1012.8
20260903213009 23 249 6.4 19.3 0.00 0.00 0.00 61 1013.1
20260903212011 23 245 8.0 17.7 0.00 0.00 0.00 62 1013.1
20260903211010 23 224 8.0 14.5 0.00 0.00 0.00 62 1013.1
20260903210016 22 252 11.3 19.3 0.00 0.00 0.00 62 1013.2
20260903205017 22 198 11.3 20.9 0.00 0.00 0.00 62 1013.1
20260903204011 23 178 8.0 14.5 0.00 0.00 0.00 61 1013.2
20260903203015 23 324 6.4 17.7 0.00 0.00 0.00 62 1013.2
20260903202019 23 247 4.8 16.1 0.00 0.00 0.00 61 1013.3
20260903201036 23 237 6.4 16.1 0.00 0.00 0.00 60 1013.4
20260903200018 23 193 6.4 16.1 0.00 0.00 0.00 60 1013.4
20260903195017 23 178 4.8 12.9 0.00 0.00 0.00 62 1013.6
20260903194022 23 245 8.0 16.1 0.00 0.00 0.00 60 1013.8
20260903193039 23 162 6.4 17.7 0.00 0.00 0.00 60 1013.8
20260903192019 23 230 4.8 14.5 0.00 0.00 0.00 62 1013.9
20260903191018 23 234 4.8 14.5 0.00 0.00 0.00 62 1014.0
20260903190018 23 247 6.4 16.1 0.00 0.00 0.00 63 1014.3
20260903185020 23 174 4.8 14.5 0.00 0.00 0.00 62 1014.3
20260903184037 22 123 8.0 16.1 0.00 0.00 0.00 63 1014.2
20260903183020 22 172 11.3 17.7 0.00 0.00 0.00 63 1014.5
20260903182021 22 179 8.0 12.9 0.00 0.00 0.00 65 1014.5
20260903181040 22 209 6.4 14.5 0.00 0.00 0.00 65 1014.6